Tracking 22130 objects as of 21-Jan-2021
HD Live streaming from Space Station
objects crossing your sky now

GALAXY 9

Track GALAXY 9 now!
GALAXY 9 is classified as:


NORAD ID: 23877
Int'l Code: 1996-033A
Perigee: 35,978.0 km
Apogee: 36,021.1 km
Inclination: 8.9 °
Period: 1,446.6 minutes
Semi major axis: 42370 km
RCS: 8.797 m2 (large)
Launch date: May 24, 1996
Source: United States (US)
Launch site: AIR FORCE EASTERN TEST RANGE (AFETR)

Voice and vision communication; 24 C-band; North America, Caribbean.
aabbcc
Your satellite tracking list
Your tracking list is empty




NASA's NSSDC Master Catalog

Two Line Element Set (TLE):
1 23877U 96033A   21020.43730035 -.00000328  00000-0  00000-0 0  9992
2 23877   8.8997  45.2943 0005085  97.5623 262.3681  0.99542190 26709
Source of the keplerian elements: AFSPC